Wind_Speed
9 9 9 10 10 11 11 12 12 11 10 9 9 7 6 4 3 3 3 1 1 1 2 2 2 3 3 3 4 4 4 4 4 4 5 5 5 6 6 6 7 7 8
8 9 10 8 9 10 11 11 11 10 9 9 8 7 5 4 4 4 3 2 2 2 3 4 3 4 5 5 5 5 5 6 5 6 6 7 7 7 7 8 8 9 10
9 10 10 10 9 9 10 10 10 10 9 8 8 7 6 5 5 5 5 4 4 4 4 5 5 5 6 6 7 7 7 7 7 7 7 8 9 9 9 10 10 11 11
10 10 10 10 10 9 10 10 10 10 9 8 7 6 6 5 6 6 5 5 5 6 6 6 6 6 7 7 7 7 8 9 9 9 9 9 10 10 11 11 12 13 13
10 11 10 10 10 10 10 10 10 10 9 8 7 6 6 6 6 6 5 6 6 6 7 7 7 7 7 8 8 9 9 10 10 11 11 11 11 11 12 13 13 14 15
11 11 10 10 10 10 10 10 10 9 8 8 7 7 6 6 7 6 6 6 6 6 7 7 7 7 8 9 9 10 11 11 11 12 12 13 13 13 14 14 15 15 16
11 11 11 10 10 10 10 10 9 9 9 8 7 7 8 8 8 8 8 7 6 6 7 6 6 7 8 9 9 10 11 12 12 13 13 14 15 15 15 16 16 17 18
12 12 12 11 10 11 11 10 9 8 9 9 8 8 9 9 9 9 8 8 8 8 8 8 8 8 9 10 10 10 11 12 12 13 14 15 15 16 16 16 17 18 18
12 13 13 11 11 12 12 9 9 8 9 9 9 9 9 9 9 9 9 9 9 10 10 10 9 10 10 10 11 11 11 12 12 13 14 16 16 16 16 17 17 17 18
13 13 13 12 12 13 12 10 9 9 9 9 10 10 9 10 11 10 10 10 11 11 11 10 10 10 10 10 11 11 11 11 12 13 14 14 14 15 17 17 17 17 17
14 14 13 13 13 14 12 11 11 10 10 10 10 10 10 11 11 11 11 12 12 11 11 10 9 9 9 10 11 12 13 13 13 14 14 13 14 15 16 17 18 18 18
14 14 14 14 15 14 13 12 12 12 11 11 11 11 11 11 12 13 13 13 12 11 11 10 10 10 10 12 12 13 14 14 14 14 14 15 15 16 16 16 17 18 18
16 16 15 14 14 15 15 14 14 13 13 12 12 12 12 12 12 13 14 13 13 11 11 10 11 11 12 12 12 12 13 14 14 15 15 16 17 17 17 18 18 19 20
17 17 15 15 15 15 15 15 15 15 14 14 14 14 13 13 14 14 14 14 12 11 11 11 11 12 12 12 12 12 13 14 15 15 16 17 18 19 19 20 20 20 20
17 16 15 16 15 15 15 15 16 15 15 15 15 16 15 15 15 15 15 14 13 12 12 11 11 12 13 12 13 14 15 15 16 16 17 18 19 19 20 20 21 22 22
17 16 16 16 16 16 16 16 16 16 16 16 16 16 16 16 16 15 14 14 13 13 13 13 13 14 13 13 14 15 15 15 16 17 18 19 19 20 20 21 21 22 22
18 18 17 17 17 16 16 16 16 15 16 16 15 16 16 16 16 14 13 13 13 13 14 14 15 15 15 15 15 15 15 16 16 17 18 20 20 21 21 21 22 23 23
20 19 18 17 16 16 16 15 15 15 15 14 14 15 16 16 15 14 13 14 14 14 15 14 15 15 15 15 15 16 16 17 18 19 19 20 21 22 22 23 23 24 25
19 18 18 16 16 15 15 15 14 14 14 14 13 13 14 15 15 14 14 14 14 14 14 14 15 15 15 15 16 17 18 19 19 19 20 21 22 22 23 24 24 25 26
17 17 16 16 15 15 14 14 14 13 13 13 13 13 13 13 13 13 13 13 13 13 14 14 14 14 15 16 17 17 18 19 19 20 21 21 22 23 24 25 25 26 26
17 17 16 16 16 15 15 15 14 14 13 13 13 13 12 12 12 11 12 12 13 14 14 14 15 15 16 17 17 18 18 19 20 21 22 23 23 24 25 25 25 25 26
19 18 17 16 16 15 15 15 15 15 14 14 14 14 13 13 12 12 12 12 13 14 14 15 15 15 15 16 17 18 19 20 21 22 22 23 23 24 25 25 25 26 26
20 18 17 17 17 17 16 16 16 16 16 15 15 15 14 13 13 12 13 13 14 15 15 15 16 16 16 17 18 19 20 20 21 22 22 23 23 24 25 26 26 27 28
20 19 18 18 18 18 17 17 17 16 15 15 16 15 15 14 14 14 15 15 16 15 15 16 16 17 18 18 19 20 20 21 22 23 23 24 25 25 25 26 27 28 29
21 19 19 18 18 18 17 16 16 16 16 16 16 16 15 15 16 16 16 16 15 16 16 17 17 18 19 20 20 21 21 22 22 24 24 25 26 26 26 27 28 29 29
21 21 20 19 18 18 17 17 17 16 16 17 17 16 16 16 16 16 15 15 15 16 17 18 18 19 20 21 21 22 23 23 24 25 26 26 26 27 28 28 29 29 29
Wind_Direction
0 4 5 9 13 16 16 15 15 17 19 17 16 20 27 30 38 31 14 343 308 297 245 255 253 251 251 254 253 250 246 250 253 261 271 277 277 280 280 280 281 283 284
355 353 359 358 1 5 6 5 4 7 9 11 11 13 15 20 17 9 346 312 281 274 253 257 261 260 257 254 253 254 255 259 262 266 270 275 275 276 278 279 277 277 280
339 341 347 353 353 356 357 356 356 360 359 359 3 4 3 359 350 351 343 322 283 281 276 265 268 263 260 255 254 255 258 260 262 267 271 275 278 279 276 277 278 280 282
326 328 337 341 341 341 345 347 348 352 354 351 352 357 353 341 342 343 337 324 297 282 282 274 270 269 268 261 257 262 263 265 265 269 272 274 277 277 276 278 279 281 281
316 315 322 329 329 330 334 338 342 346 350 348 348 349 347 343 339 337 330 321 307 290 286 279 270 269 267 266 263 264 267 269 268 272 274 274 277 278 277 279 281 281 281
307 309 312 315 319 321 322 327 333 339 344 347 350 352 350 347 339 333 325 316 308 296 289 284 274 268 264 267 269 267 267 267 270 275 276 275 277 280 278 279 280 282 283
304 307 305 303 307 308 311 318 323 331 334 337 340 346 348 346 338 330 326 319 306 297 293 293 284 274 266 269 272 273 274 273 274 277 277 277 277 278 280 281 281 282 284
303 302 303 301 299 300 301 306 310 317 325 331 333 334 339 340 336 332 329 321 310 302 295 291 281 278 274 272 272 273 278 280 281 282 282 282 280 278 280 282 282 282 283
298 299 299 301 299 301 301 297 303 314 321 323 324 326 328 329 329 327 324 321 314 310 303 289 282 281 284 277 276 277 278 279 281 283 284 284 283 281 281 283 283 284 284
297 300 297 294 291 297 298 287 291 304 313 315 317 319 317 320 324 323 319 313 312 308 301 292 282 283 284 282 279 278 285 284 284 286 288 286 286 286 284 285 285 287 288
294 297 292 286 288 289 290 284 288 295 302 306 309 310 311 313 316 316 312 309 308 304 302 294 287 286 289 289 288 281 280 282 285 285 285 285 288 291 293 291 287 288 289
286 290 289 285 286 286 285 286 286 288 292 297 299 302 303 305 308 311 310 307 308 300 295 292 287 289 292 290 289 283 279 282 281 283 284 287 291 293 295 294 294 291 289
280 284 284 284 286 284 284 285 289 291 291 291 292 295 295 296 300 305 308 305 304 301 295 292 288 290 293 291 289 290 283 282 285 284 286 289 292 294 296 296 296 294 294
278 278 280 284 285 281 280 283 287 289 291 290 290 293 292 292 294 297 299 298 296 296 296 295 294 293 293 293 290 294 290 286 289 288 289 290 291 294 295 297 296 296 296
282 282 282 280 280 278 278 281 285 286 288 290 290 291 291 289 289 291 292 294 292 289 291 294 294 294 297 294 290 293 293 288 288 290 291 291 292 293 295 297 298 297 296
282 285 283 281 280 276 277 279 283 287 291 292 290 288 286 286 287 285 284 287 289 290 289 288 291 292 293 293 294 296 297 293 290 291 293 292 294 295 295 296 296 297 297
280 283 283 283 280 276 279 280 282 286 289 289 288 284 283 285 288 284 283 287 288 290 288 286 290 291 290 290 292 294 294 294 295 296 297 297 294 298 298 296 297 296 297
277 281 282 281 280 279 280 282 284 286 289 290 289 288 288 290 292 290 286 288 289 292 288 285 289 292 292 291 293 295 295 297 297 297 298 299 299 299 301 300 299 299 299
279 278 280 276 276 277 279 283 286 288 291 294 293 299 296 295 296 289 286 289 290 294 294 290 291 293 293 293 296 297 297 297 297 297 298 299 299 300 301 301 300 300 299
276 277 277 276 274 275 278 283 285 287 290 295 300 303 301 298 297 295 293 290 293 297 299 297 294 294 294 296 299 300 300 300 299 299 299 299 301 301 301 300 300 301 301
272 276 277 275 275 277 279 282 285 286 290 296 301 302 304 300 298 299 301 298 299 301 301 300 301 298 297 298 300 301 303 303 303 302 301 302 303 302 302 302 303 304 303
270 272 275 275 275 277 278 280 283 284 288 293 298 300 301 299 298 300 302 302 305 305 303 302 302 304 305 307 307 306 305 306 306 306 306 305 304 303 304 304 304 304 303
268 270 272 274 275 276 278 281 280 282 286 289 294 297 297 295 297 300 302 302 305 308 308 306 307 309 310 310 310 310 309 310 309 309 309 309 307 306 305 304 304 304 303
265 266 268 271 274 278 279 282 282 281 282 286 291 294 295 294 294 299 301 302 303 306 307 308 310 311 311 311 311 311 311 310 310 309 308 309 309 307 305 305 305 305 304
261 264 267 271 273 276 279 282 283 280 282 285 288 291 293 294 294 298 300 301 302 304 305 306 308 309 310 311 312 312 311 310 309 308 308 308 308 307 307 306 306 306 307
259 262 266 268 270 274 278 281 281 280 283 286 290 290 293 295 295 295 298 299 300 303 306 306 307 307 307 309 310 311 311 311 310 309 308 308 307 307 307 307 307 307 307
Height
5933 5932 5930 5929 5927 5926 5924 5923 5921 5919 5918 5917 5915 5914 5913 5913 5912 5912 5912 5912 5912 5912 5912 5912 5912 5912 5913 5913 5912 5912 5912 5912 5912 5912 5912 5912 5911 5911 5910 5909 5908 5908 5907
5933 5932 5930 5928 5927 5926 5925 5923 5921 5919 5918 5917 5915 5914 5913 5912 5912 5911 5911 5911 5911 5911 5911 5911 5911 5911 5911 5911 5911 5911 5911 5911 5911 5911 5910 5910 5910 5909 5908 5908 5907 5906 5905
5932 5932 5931 5929 5927 5926 5925 5923 5921 5919 5918 5916 5915 5914 5913 5912 5911 5910 5910 5909 5909 5909 5909 5909 5909 5909 5909 5909 5909 5909 5909 5909 5909 5909 5909 5908 5908 5907 5907 5906 5905 5904 5903
5931 5931 5930 5929 5927 5926 5924 5923 5921 5919 5917 5915 5914 5913 5912 5911 5910 5909 5908 5908 5908 5908 5907 5907 5907 5907 5907 5907 5907 5907 5907 5907 5907 5907 5906 5906 5905 5905 5904 5903 5902 5901 5900
5930 5929 5929 5928 5926 5924 5923 5921 5920 5918 5916 5915 5913 5912 5911 5910 5909 5908 5907 5907 5906 5906 5905 5905 5905 5905 5905 5905 5905 5905 5905 5904 5904 5904 5904 5903 5903 5902 5901 5900 5899 5898 5897
5928 5927 5927 5926 5925 5923 5921 5920 5918 5917 5915 5914 5913 5911 5910 5909 5908 5907 5906 5905 5904 5904 5903 5903 5903 5903 5903 5903 5902 5902 5902 5902 5901 5901 5900 5900 5899 5899 5898 5897 5896 5895 5894
5926 5926 5925 5924 5923 5922 5921 5919 5918 5916 5915 5913 5912 5910 5909 5908 5907 5905 5904 5903 5902 5902 5901 5901 5900 5900 5900 5900 5900 5899 5899 5898 5898 5898 5897 5896 5896 5895 5894 5893 5892 5891 5889
5924 5923 5923 5921 5921 5920 5919 5918 5916 5914 5913 5912 5910 5909 5908 5907 5905 5904 5902 5901 5900 5900 5899 5898 5898 5897 5897 5897 5896 5896 5896 5895 5895 5894 5893 5892 5891 5891 5890 5889 5888 5886 5885
5921 5920 5919 5919 5919 5918 5917 5916 5915 5913 5912 5910 5909 5907 5906 5905 5904 5902 5901 5900 5898 5898 5896 5895 5895 5894 5894 5894 5893 5893 5893 5892 5891 5890 5889 5888 5887 5886 5885 5884 5883 5882 5881
5917 5917 5916 5916 5916 5915 5914 5914 5913 5911 5910 5909 5907 5905 5904 5903 5902 5901 5899 5898 5896 5895 5893 5892 5892 5892 5891 5891 5890 5890 5889 5889 5888 5887 5885 5884 5883 5882 5881 5880 5879 5877 5876
5913 5913 5913 5913 5912 5911 5911 5910 5909 5908 5907 5906 5905 5903 5902 5901 5900 5898 5897 5895 5893 5892 5890 5889 5889 5889 5888 5888 5887 5886 5886 5885 5884 5883 5881 5880 5879 5878 5876 5875 5874 5872 5871
5910 5910 5909 5909 5908 5907 5907 5907 5906 5905 5904 5903 5902 5901 5899 5898 5897 5895 5893 5892 5890 5888 5887 5887 5886 5886 5885 5884 5883 5882 5882 5881 5880 5879 5878 5877 5875 5874 5872 5870 5869 5867 5866
5906 5906 5906 5905 5905 5904 5904 5903 5902 5901 5900 5900 5899 5898 5896 5895 5894 5892 5890 5889 5887 5886 5885 5884 5883 5882 5881 5880 5879 5879 5878 5877 5876 5875 5874 5873 5871 5870 5868 5866 5864 5862 5860
5902 5901 5901 5901 5901 5901 5900 5900 5899 5898 5897 5896 5895 5894 5893 5891 5890 5889 5887 5885 5884 5883 5882 5881 5880 5879 5878 5877 5876 5875 5874 5874 5872 5871 5870 5868 5867 5865 5863 5861 5859 5857 5855
5898 5898 5898 5898 5898 5897 5896 5896 5895 5894 5892 5892 5891 5890 5888 5887 5886 5885 5884 5882 5881 5879 5878 5877 5876 5875 5874 5873 5872 5871 5870 5869 5868 5867 5865 5864 5862 5860 5858 5856 5854 5852 5850
5894 5894 5894 5894 5893 5893 5892 5891 5891 5890 5888 5888 5886 5885 5884 5883 5882 5881 5880 5878 5877 5876 5875 5874 5873 5872 5871 5870 5869 5867 5866 5865 5863 5862 5860 5859 5857 5854 5852 5850 5848 5846 5844
5890 5890 5890 5890 5889 5888 5888 5888 5887 5886 5885 5883 5881 5880 5879 5878 5877 5876 5875 5874 5873 5872 5871 5870 5869 5868 5867 5865 5864 5863 5862 5860 5859 5857 5855 5853 5851 5849 5846 5844 5842 5840 5837
5885 5886 5886 5885 5885 5884 5884 5883 5883 5882 5880 5879 5877 5876 5875 5874 5873 5872 5871 5870 5869 5868 5866 5865 5865 5863 5862 5861 5860 5858 5857 5855 5854 5852 5850 5848 5846 5843 5841 5838 5836 5834 5831
5881 5881 5880 5880 5880 5880 5879 5879 5878 5878 5877 5875 5873 5873 5872 5871 5869 5868 5867 5866 5865 5864 5862 5861 5860 5859 5857 5856 5855 5854 5852 5850 5848 5846 5844 5842 5840 5837 5835 5832 5830 5827 5824
5877 5877 5876 5876 5875 5875 5875 5875 5874 5874 5873 5872 5870 5870 5868 5867 5866 5864 5863 5862 5861 5860 5859 5857 5856 5854 5853 5852 5851 5849 5847 5845 5843 5840 5838 5836 5834 5831 5828 5825 5823 5820 5817
5872 5873 5872 5872 5872 5871 5871 5871 5870 5870 5869 5868 5868 5866 5865 5864 5862 5861 5860 5859 5858 5857 5855 5853 5852 5850 5849 5847 5846 5844 5842 5839 5837 5835 5832 5829 5827 5824 5821 5819 5816 5813 5810
5868 5868 5868 5868 5867 5867 5867 5867 5866 5866 5865 5865 5864 5863 5862 5860 5859 5858 5857 5856 5854 5853 5851 5850 5848 5846 5845 5843 5841 5839 5836 5834 5832 5829 5826 5823 5821 5818 5815 5812 5809 5806 5803
5863 5863 5863 5863 5863 5863 5862 5862 5861 5861 5861 5860 5860 5859 5858 5856 5855 5854 5853 5852 5850 5849 5847 5846 5844 5842 5840 5838 5836 5834 5831 5829 5826 5823 5820 5817 5814 5811 5808 5805 5802 5799 5795
5858 5858 5858 5858 5858 5858 5858 5857 5857 5857 5856 5856 5855 5855 5854 5852 5851 5850 5849 5848 5846 5845 5843 5841 5839 5838 5836 5834 5831 5828 5826 5823 5820 5817 5814 5811 5808 5805 5802 5798 5795 5791 5787
5852 5852 5853 5853 5853 5853 5853 5853 5852 5852 5852 5852 5851 5851 5849 5848 5847 5846 5844 5843 5842 5841 5839 5837 5835 5833 5831 5829 5826 5823 5820 5817 5814 5811 5808 5805 5802 5798 5795 5791 5787 5784 5780
5846 5847 5848 5848 5848 5848 5848 5848 5848 5848 5848 5847 5847 5846 5845 5843 5842 5841 5840 5839 5838 5836 5834 5832 5830 5828 5826 5823 5820 5818 5815 5811 5808 5805 5801 5798 5794 5791 5787 5784 5780 5776 5772